KJ6GEA Weather Reports


time (UTC)temp
C
wind
direction
speed
KPH
gust
KPH
rain 1hr
cm
rain 24hr
cm
rain mn
cm
humidity
%
barometer
mb
20260503210126 18 229 9.7 25.7 0.00 0.00 0.00 63 1013.2
20260503205624 18 188 8.0 19.3 0.00 0.00 0.00 64 1013.2
20260503205123 18 229 8.0 22.5 0.00 0.00 0.00 63 1013.2
20260503204625 18 178 9.7 22.5 0.00 0.00 0.00 65 1013.2
20260503204122 17 255 9.7 29.0 0.00 0.00 0.00 66 1013.2
20260503203630 17 259 11.3 22.5 0.00 0.00 0.00 68 1013.3
20260503203622 17 180 9.7 29.0 0.00 0.00 0.00 65 1013.2
20260503203123 18 247 9.7 22.5 0.00 0.00 0.00 68 1013.3
20260503202120 17 202 11.3 25.7 0.00 0.00 0.00 67 1013.3
20260503201618 17 295 11.3 25.7 0.00 0.00 0.00 68 1013.2
20260503201117 17 232 9.7 25.7 0.00 0.00 0.00 67 1013.2
20260503200618 17 203 8.0 20.9 0.00 0.00 0.00 67 1013.2
20260503200116 17 219 8.0 22.5 0.00 0.00 0.00 67 1013.2
20260503195616 17 236 9.7 24.1 0.00 0.00 0.00 69 1013.2
20260503195116 17 229 9.7 24.1 0.00 0.00 0.00 67 1013.2
20260503194615 17 200 8.0 24.1 0.00 0.00 0.00 66 1013.2
20260503194113 17 143 8.0 20.9 0.00 0.00 0.00 67 1013.2
20260503193615 17 176 9.7 22.5 0.00 0.00 0.00 66 1013.2
20260503193111 17 205 9.7 22.5 0.00 0.00 0.00 66 1013.2
20260503192620 17 243 9.7 20.9 0.00 0.00 0.00 68 1013.2
20260503192613 17 198 9.7 22.5 0.00 0.00 0.00 67 1013.2
20260503191609 17 232 8.0 20.9 0.00 0.00 0.00 67 1013.2
20260503191109 17 235 8.0 20.9 0.00 0.00 0.00 68 1013.2
20260503190610 17 234 8.0 19.3 0.00 0.00 0.00 68 1013.2
20260503190109 17 234 6.4 19.3 0.00 0.00 0.00 68 1013.2
20260503185608 17 243 4.8 14.5 0.00 0.00 0.00 68 1013.2
20260503185107 17 212 6.4 17.7 0.00 0.00 0.00 68 1013.2
20260503184608 17 240 6.4 17.7 0.00 0.00 0.00 66 1013.2
20260503184106 17 248 4.8 20.9 0.00 0.00 0.00 68 1013.2
20260503183610 16 247 6.4 22.5 0.00 0.00 0.00 69 1013.2
20260503183604 16 252 6.4 22.5 0.00 0.00 0.00 69 1013.2
20260503182603 17 229 4.8 16.1 0.00 0.00 0.00 69 1013.2
20260503182102 17 281 4.8 17.7 0.00 0.00 0.00 72 1013.2
20260503181602 17 240 6.4 22.5 0.00 0.00 0.00 69 1013.0
20260503181110 17 240 6.4 19.3 0.00 0.00 0.00 68 1013.0
20260503181101 17 270 6.4 22.5 0.00 0.00 0.00 67 1013.0
20260503180100 17 189 6.4 19.3 0.00 0.00 0.00 68 1012.8
20260503175607 16 172 6.4 17.7 0.00 0.00 0.00 69 1012.8
20260503175600 17 302 6.4 17.7 0.00 0.00 0.00 71 1012.8
20260503174557 16 232 8.0 19.3 0.00 0.00 0.00 71 1012.7
20260503174057 16 237 8.0 20.9 0.00 0.00 0.00 72 1012.7
20260503173558 17 169 8.0 20.9 0.00 0.00 0.00 72 1012.7
20260503173057 16 162 6.4 19.3 0.00 0.00 0.00 75 1012.7
20260503172559 15 229 4.8 12.9 0.00 0.00 0.00 78 1012.7
20260503172552 16 226 4.8 14.5 0.00 0.00 0.00 78 1012.7
20260503171554 15 157 6.4 16.1 0.00 0.00 0.00 80 1012.7
20260503171052 15 210 8.0 16.1 0.00 0.00 0.00 79 1012.7
20260503170551 15 141 8.0 19.3 0.00 0.00 0.00 82 1012.7
20260503151014 12 229 1.6 8.0 0.00 0.00 0.00 89 1012.2
20260503150507 12 270 1.6 8.0 0.00 0.00 0.00 89 1012.2
20260503150500 12 271 3.2 8.0 0.00 0.00 0.00 88 1012.1
20260503131253 12 160 1.6 4.8 0.00 0.00 0.00 87 1010.7
20260503130753 12 148 1.6 4.8 0.00 0.00 0.00 87 1010.7
20260503130258 12 220 1.6 6.4 0.00 0.00 0.00 86 1010.6
20260503130251 12 220 1.6 6.4 0.00 0.00 0.00 87 1010.6
20260503110536 12 218 1.6 4.8 0.00 0.00 0.00 85 1010.8
20260503090359 12 297 0.0 4.8 0.00 0.00 0.00 83 1011.2
20260503081324 13 233 1.6 8.0 0.00 0.00 0.00 82 1011.7
20260503080830 13 188 0.0 4.8 0.00 0.00 0.00 82 1011.8
20260503080823 13 245 1.6 6.4 0.00 0.00 0.00 82 1011.7
20260503072725 12 260 0.0 3.2 0.00 0.00 0.00 81 1011.8
20260503072719 12 260 0.0 1.6 0.00 0.00 0.00 81 1011.8
20260503071651 12 260 0.0 3.2 0.00 0.00 0.00 81 1011.9
20260503071148 12 260 0.0 3.2 0.00 0.00 0.00 82 1011.9
20260503070858 12 270 0.0 4.8 0.00 0.00 0.00 81 1012.0
20260503070745 12 269 0.0 3.2 0.00 0.00 0.00 82 1012.0
20260503070647 12 260 0.0 3.2 0.00 0.00 0.00 81 1011.9
20260503070632 12 269 0.0 3.2 0.00 0.00 0.00 81 1012.0
20260503054939 12 230 3.2 11.3 0.00 0.00 0.00 80 1012.3
20260503054438 13 242 1.6 6.4 0.00 0.00 0.00 80 1012.3
20260503053935 13 231 1.6 8.0 0.00 0.00 0.00 80 1012.3
20260503053430 13 250 1.6 8.0 0.00 0.00 0.00 80 1012.5
20260503052928 13 214 1.6 6.4 0.00 0.00 0.00 81 1012.5
20260503052425 13 287 3.2 8.0 0.00 0.00 0.00 80 1012.5
20260503051920 13 236 3.2 9.7 0.00 0.00 0.00 81 1012.6
20260503051418 13 231 3.2 9.7 0.00 0.00 0.00 80 1012.6
20260503050920 13 250 3.2 8.0 0.00 0.00 0.00 80 1012.6
20260503050401 13 288 3.2 8.0 0.00 0.00 0.00 80 1012.4
20260503045900 13 240 3.2 8.0 0.00 0.00 0.00 80 1012.4
20260503045400 13 249 3.2 9.7 0.00 0.00 0.00 80 1012.4
20260503044857 13 248 3.2 9.7 0.00 0.00 0.00 80 1012.4
20260503044349 13 232 3.2 9.7 0.00 0.00 0.00 80 1012.4
20260503043846 13 270 3.2 11.3 0.00 0.00 0.00 80 1012.4
20260503043346 13 288 1.6 11.3 0.00 0.00 0.00 81 1012.3
20260503042857 13 271 1.6 8.0 0.00 0.00 0.00 81 1012.3
20260503042347 13 287 3.2 8.0 0.00 0.00 0.00 81 1012.3
20260503041846 13 270 3.2 14.5 0.00 0.00 0.00 81 1012.2
20260503041339 13 251 3.2 14.5 0.00 0.00 0.00 81 1012.2
20260503040839 13 215 3.2 11.3 0.00 0.00 0.00 81 1012.2
20260503040337 13 233 4.8 11.3 0.00 0.00 0.00 80 1012.2
20260503035837 13 293 3.2 11.3 0.00 0.00 0.00 80 1012.2
20260503035336 13 230 3.2 11.3 0.00 0.00 0.00 80 1012.2
20260503034838 13 240 3.2 14.5 0.00 0.00 0.00 80 1012.2
20260503034336 13 238 3.2 14.5 0.00 0.00 0.00 80 1012.2
20260503033833 13 311 3.2 9.7 0.00 0.00 0.00 80 1012.2
20260503033333 13 233 3.2 9.7 0.00 0.00 0.00 80 1012.2
20260503032834 13 273 3.2 9.7 0.00 0.00 0.00 80 1012.2
20260503032330 13 251 3.2 8.0 0.00 0.00 0.00 80 1012.2
20260503031830 13 249 3.2 12.9 0.00 0.00 0.00 80 1011.8
20260503031327 13 257 3.2 12.9 0.00 0.00 0.00 79 1011.8
20260503030827 13 262 3.2 11.3 0.00 0.00 0.00 79 1011.8
20260503030327 13 303 3.2 11.3 0.00 0.00 0.00 79 1011.7
20260503025832 13 247 1.6 8.0 0.00 0.00 0.00 78 1011.7
20260503025827 13 267 1.6 8.0 0.00 0.00 0.00 79 1011.7
20260503024833 13 257 3.2 11.3 0.00 0.00 0.00 77 1011.7
20260503024827 13 260 3.2 8.0 0.00 0.00 0.00 78 1011.7
20260503023820 13 227 3.2 9.7 0.00 0.00 0.00 77 1011.7
20260503023813 13 236 3.2 11.3 0.00 0.00 0.00 77 1011.7
20260503022812 13 250 3.2 8.0 0.00 0.00 0.00 76 1011.7
20260503022311 13 276 4.8 16.1 0.00 0.00 0.00 76 1011.7
20260503021812 13 205 4.8 16.1 0.00 0.00 0.00 76 1011.7
20260503021308 14 245 4.8 12.9 0.00 0.00 0.00 75 1011.7
20260503020807 14 258 4.8 19.3 0.00 0.00 0.00 75 1011.7
20260503020311 14 319 4.8 16.1 0.00 0.00 0.00 75 1011.9
20260503020307 14 244 4.8 19.3 0.00 0.00 0.00 75 1011.9
20260503015305 14 284 4.8 14.5 0.00 0.00 0.00 75 1011.9
20260503014803 14 236 6.4 16.1 0.00 0.00 0.00 75 1011.9
20260503014304 14 239 4.8 16.1 0.00 0.00 0.00 75 1011.9
20260503013804 15 240 6.4 19.3 0.00 0.00 0.00 75 1011.9
20260503013305 14 266 9.7 24.1 0.00 0.00 0.00 75 1012.1
20260503012801 14 272 9.7 24.1 0.00 0.00 0.00 74 1012.1
20260503012300 14 236 9.7 22.5 0.00 0.00 0.00 75 1012.1
20260503011759 15 199 9.7 20.9 0.00 0.00 0.00 74 1012.2
20260503011300 15 285 9.7 20.9 0.00 0.00 0.00 74 1012.2
20260503010805 15 233 9.7 20.9 0.00 0.00 0.00 73 1012.2
20260503010759 15 204 9.7 20.9 0.00 0.00 0.00 74 1012.2
20260503010419 15 234 9.7 20.9 0.00 0.00 0.00 72 1012.2
20260503005300 15 246 11.3 20.9 0.00 0.00 0.00 72 1012.2
20260503004800 15 203 11.3 20.9 0.00 0.00 0.00 72 1012.2
20260503004300 15 215 9.7 20.9 0.00 0.00 0.00 71 1012.2
20260503003801 16 185 9.7 24.1 0.00 0.00 0.00 71 1012.2
20260503003252 16 269 9.7 24.1 0.00 0.00 0.00 71 1012.2
20260503002759 16 209 8.0 16.1 0.00 0.00 0.00 70 1012.2
20260503002752 16 222 8.0 20.9 0.00 0.00 0.00 70 1012.2
20260503001758 16 196 11.3 22.5 0.00 0.00 0.00 68 1012.2
20260503001752 16 245 9.7 22.5 0.00 0.00 0.00 70 1012.2
20260503000749 16 293 9.7 20.9 0.00 0.00 0.00 68 1012.2
20260503000259 16 321 9.7 25.7 0.00 0.00 0.00 68 1012.2
20260502235748 16 207 8.0 25.7 0.00 0.00 0.00 67 1012.2
20260502235248 17 213 8.0 22.5 0.00 0.00 0.00 66 1012.2
20260502234746 17 253 8.0 22.5 0.00 0.00 0.00 67 1012.3
20260502234247 17 247 9.7 19.3 0.00 0.00 0.00 67 1012.3
20260502233747 17 239 9.7 20.9 0.00 0.00 0.00 68 1012.3
20260502233244 17 207 9.7 30.6 0.00 0.00 0.00 68 1012.5
20260502232743 17 208 11.3 30.6 0.00 0.00 0.00 68 1012.5
20260502232244 16 238 12.9 29.0 0.00 0.00 0.00 70 1012.5
20260502231741 16 243 14.5 29.0 0.00 0.00 0.00 70 1012.7
20260502231242 16 218 14.5 29.0 0.00 0.00 0.00 70 1012.7
20260502230750 16 245 12.9 32.2 0.00 0.00 0.00 69 1012.8
20260502230742 16 240 12.9 32.2 0.00 0.00 0.00 69 1012.7
20260502225740 16 229 14.5 29.0 0.00 0.00 0.00 69 1012.8
20260502224738 16 221 11.3 25.7 0.00 0.00 0.00 68 1012.9
20260502224245 17 278 12.9 24.1 0.00 0.00 0.00 69 1012.9
20260502224238 17 216 11.3 24.1 0.00 0.00 0.00 68 1012.9
20260502223239 16 236 14.5 27.4 0.00 0.00 0.00 71 1013.2
20260502222740 16 248 16.1 30.6 0.00 0.00 0.00 70 1013.2
20260502222246 17 224 14.5 30.6 0.00 0.00 0.00 69 1013.2
20260502222239 16 231 14.5 30.6 0.00 0.00 0.00 69 1013.2
20260502221241 17 287 11.3 29.0 0.00 0.00 0.00 68 1013.2
20260502220738 17 232 8.0 27.4 0.00 0.00 0.00 68 1013.2
20260502220240 17 307 8.0 22.5 0.00 0.00 0.00 69 1013.5
20260502215740 17 217 11.3 27.4 0.00 0.00 0.00 70 1013.5
20260502215246 17 215 12.9 33.8 0.00 0.00 0.00 69 1013.5
20260502215240 17 160 14.5 30.6 0.00 0.00 0.00 71 1013.5
20260502214236 17 176 11.3 33.8 0.00 0.00 0.00 69 1013.5
20260502213735 17 169 11.3 25.7 0.00 0.00 0.00 69 1013.5
20260502213236 16 297 11.3 25.7 0.00 0.00 0.00 70 1013.6
20260502212746 16 280 14.5 29.0 0.00 0.00 0.00 71 1013.6
20260502212736 16 209 12.9 29.0 0.00 0.00 0.00 70 1013.6
20260502211734 16 218 14.5 30.6 0.00 0.00 0.00 71 1013.6
20260502211234 16 217 12.9 30.6 0.00 0.00 0.00 70 1013.6